Regional Weather Roundup
Issued by NWS Mt. Holly, NJ

Home | Current Version | Previous Version | Text Only | Print | Product List | Glossary On
Versions: 1 2 3 4 5 6 7 8 9 10 11 12 13 14 15 16 17 18 19 20 21 22 23 24 25 26 27 28 29 30 31 32 33 34 35 36 37 38 39 40 41 42 43 44 45 46 47 48 49 50
000
ASUS41 KPHI 021012
RWRPHI

REGIONAL WEATHER ROUNDUP
NATIONAL WEATHER SERVICE MOUNT HOLLY NJ
600 AM EDT SUN AUG 02 2015

NOTE:  "FAIR" INDICATES FEW OR NO CLOUDS BELOW 12,000 FEET WITH NO
SIGNIFICANT WEATHER AND/OR OBSTRUCTIONS TO VISIBILITY.

 * = STATION DOES NOT REPORT PRECIPITATION (E.G. RAIN, SNOW, ETC.)
        OR FOG.

NJZ015>026-021100-
SOUTHERN NEW JERSEY

CITY           SKY/WX    TMP DP  RH WIND       PRES   REMARKS
POMONA         CLEAR     67  63  87 NW3       29.90R
RIO GRANDE*    PTCLDY    68  64  88 CALM      29.90S
MILLVILLE      CLEAR     63  61  93 CALM      29.90R
WRIGHTSTOWN    CLEAR     66  60  80 CALM      29.88R
MOUNT HOLLY      N/A     61  60  97 CALM      29.90R
TRENTON        CLEAR     65  59  81 NW5       29.90R

$$
NJZ001>014-021100-
NORTHERN NEW JERSEY

CITY           SKY/WX    TMP DP  RH WIND       PRES   REMARKS
SUSSEX         CLEAR     56  53  90 CALM      29.91S
ANDOVER*         N/A     57  56  96 CALM      29.92R
MORRISTOWN     CLEAR     57  54  88 CALM      29.90S
NEWARK         PTCLDY    69  58  67 SW3       29.89R
TETERBORO      CLEAR     68  56  65 CALM      29.88R
CALDWELL       CLEAR     62  57  83 CALM      29.90R
SOMERVILLE     CLEAR     58  56  93 CALM      29.89R FOG
ALLAIRE*       CLEAR     64  55  72 NW6       29.90R
TOMS RIVER*      N/A     59  55  88 CALM      29.90R

$$
PAZ043-044-047-054-055-060>062-066>071-021100-
EASTERN PENNSYLVANIA

CITY           SKY/WX    TMP DP  RH WIND       PRES   REMARKS
PHILADELPHIA   PTCLDY    71  57  61 CALM      29.91R
NORTH PHILA    CLEAR     67  56  67 CALM      29.92R
DOYLESTOWN     CLEAR     61  59  93 CALM      29.91R
QUAKERTOWN*    CLEAR     59  57  94 CALM      29.92S
POTTSTOWN      CLEAR     60  59  96 CALM      29.93R
LANCASTER      CLEAR     58  57  97 N5        29.92S
COATESVILLE    CLEAR     63  59  88 CALM      29.93S
READING        CLEAR     62  58  86 CALM      29.91R
ALLENTOWN      CLEAR     60  56  86 CALM      29.91S
MOUNT POCONO   CLEAR     56  53  90 NW7       29.95S
HAZLETON       CLEAR     54  54 100 CALM      29.97S FOG
WILKES BARRE   CLEAR     59  55  87 E6        29.93S

$$
DEZALL-MDZ008-012-015-019-020-021100-
DELAWARE AND EASTERN MARYLAND

CITY           SKY/WX    TMP DP  RH WIND       PRES   REMARKS
WILMINGTON     CLEAR     67  59  75 CALM      29.91R
DOVER          CLEAR     69  67  93 NW2       29.89R
GEORGETOWN     MOCLDY    67  65  93 CALM      29.90S
EASTON         PTCLDY    68  68 100 CALM      29.94R
PATUXENT       MOCLDY    74  63  68 NW6       29.91R
OCEAN CITY     CLEAR     66  63  90 CALM      29.89R
WALLOPS ISLAND CLEAR     73  70  90 N5        29.89R
CAMBRIDGE      CLEAR     70  64  83 CALM      29.89S
SALISBURY      CLEAR     68  66  93 CALM      29.89R

$$
PAZ001-021-NYZ056-072-MDZ011-DCZ001-021100-
OTHER NEARBY LOCATIONS

CITY           SKY/WX    TMP DP  RH WIND       PRES   REMARKS
HARRISBURG     CLEAR     65  60  84 CALM      29.91R
STATE COLLEGE  CLEAR     57  55  94 S6        29.94R
WILLIAMSPORT   CLEAR     57  54  89 NW3       29.91S
BINGHAMTON     CLEAR     58  53  84 SW8       29.93R
NEW YORK CITY  CLEAR     71  56  58 CALM      29.92R
BALTIMORE      PTCLDY    66  60  81 CALM      29.91S
WASHINGTON DC  PTCLDY    74  60  61 N6        29.93R

$$


USA.gov is the U.S. government's official web portal to all federal, state and local government web resources and services.